RH
11 12 15 19 19 19 18 17 18 22 22 21 21 18 16 15 14 16 20 21 21 21 20 17 16 14 13 12 10 9 9 10
12 16 19 22 22 21 22 16 17 21 23 21 20 19 17 14 16 22 21 22 21 18 16 15 12 10 9 9 8 8 9 11
12 20 25 24 23 23 23 19 16 19 23 21 20 19 19 17 19 21 22 18 18 19 17 15 15 15 13 12 10 10 8 8
14 24 26 26 28 29 25 20 16 16 21 21 20 19 19 19 20 20 19 26 29 28 27 27 26 26 24 24 25 24 22 21
18 27 33 31 31 32 30 22 16 15 17 21 22 22 20 20 21 23 36 36 34 33 32 31 29 27 24 23 23 23 24 25
22 34 35 33 36 35 31 21 17 14 15 19 22 24 27 27 33 45 45 42 39 36 32 28 26 24 22 20 20 19 18 18
35 36 36 40 42 45 34 24 17 13 13 16 23 30 33 42 49 45 42 40 40 35 29 24 21 21 20 19 18 16 15 14
33 38 46 47 49 55 36 26 17 12 11 15 33 40 46 50 49 45 41 36 36 36 31 26 28 28 28 27 24 22 20 18
38 51 55 58 62 51 41 31 19 13 11 20 40 50 56 54 46 36 36 37 41 40 34 30 29 30 32 32 30 27 24 23
52 56 62 67 67 53 44 36 21 14 12 22 38 46 49 45 37 31 40 45 46 41 38 35 32 30 25 24 22 21 22 23
56 57 62 62 65 55 41 30 18 14 14 20 29 38 37 39 30 35 52 52 48 42 36 32 27 22 18 16 15 16 19 18
50 52 65 67 68 59 40 26 18 15 17 20 28 37 39 44 47 53 57 54 48 43 35 30 23 21 20 19 22 21 24 23
44 57 70 73 74 65 48 34 24 21 21 28 31 67 66 60 56 66 64 61 53 44 37 32 29 25 21 23 26 24 19 16
54 54 70 75 75 64 51 38 29 25 29 54 62 78 65 58 59 72 73 63 53 46 45 41 32 28 23 23 21 16 11 8
54 66 73 74 74 64 48 36 30 28 37 70 80 71 58 53 71 80 76 69 56 56 47 36 31 28 24 20 16 10 6 7
62 64 64 75 73 62 46 36 32 44 64 78 73 59 52 69 90 84 86 68 64 48 40 39 32 24 17 11 7 6 5 5
61 64 77 76 76 59 45 41 48 58 64 57 58 55 65 96 90 91 82 72 55 47 59 35 24 16 10 9 8 9 9 11
65 79 91 88 88 58 50 52 59 61 61 64 64 72 94 94 96 94 78 59 58 74 41 25 14 10 9 10 10 10 14 38
88 95 96 98 97 70 62 69 77 78 72 74 74 94 97 99 99 84 65 68 74 44 24 14 11 10 12 11 12 21 50 44
97 97 96 97 96 98 98 98 87 81 81 84 87 98 99 100 94 81 80 72 41 24 14 12 11 12 12 11 20 52 50 47
Wind_Speed
27 25 21 20 19 20 21 21 21 22 22 22 23 22 19 18 16 14 15 18 19 20 19 19 18 17 18 19 19 19 19 20
27 26 24 23 22 22 23 22 23 24 23 23 23 21 19 18 17 17 19 20 21 21 20 20 20 20 21 21 23 25 25 26
30 28 27 26 25 24 24 24 24 24 23 24 23 22 20 21 20 22 22 21 20 21 21 22 23 23 25 26 28 28 30 32
32 29 30 28 28 28 26 26 26 26 25 25 24 24 22 23 25 24 23 22 23 23 25 26 28 29 30 32 34 36 37 38
32 32 32 31 31 30 30 29 28 27 26 25 25 25 26 26 26 24 24 25 26 28 30 32 34 36 37 38 39 40 42 43
34 34 34 33 34 33 33 31 30 29 28 26 26 28 28 26 25 26 26 27 29 31 33 35 38 39 40 42 43 43 44 45
36 37 36 35 36 34 33 33 32 30 29 28 28 29 29 27 28 29 30 31 33 35 36 38 39 40 41 42 42 42 44 46
38 39 37 38 36 35 34 34 33 32 32 31 30 30 30 31 32 33 35 36 38 39 39 38 40 41 43 45 47 50 51 51
39 38 36 36 37 36 37 36 35 34 33 33 33 32 33 34 36 38 39 40 42 42 42 43 44 47 49 51 52 54 56 57
38 36 36 37 37 37 37 37 36 35 35 35 36 36 36 38 40 41 41 44 45 46 46 48 49 51 52 54 56 58 60 62
37 37 38 39 39 37 38 37 37 36 36 38 38 38 39 40 42 43 44 46 48 49 50 49 50 53 57 62 65 66 69 70
37 39 40 39 41 40 39 38 38 37 38 39 40 40 41 40 43 44 46 48 50 50 51 53 54 57 61 67 71 73 76 75
39 41 40 41 42 41 41 40 40 39 39 40 41 41 41 43 45 47 48 50 52 52 55 57 59 62 66 71 70 67 67 69
41 43 42 44 43 43 41 41 41 41 41 42 43 43 44 45 48 50 50 53 54 56 58 58 63 64 68 65 62 61 63 65
44 43 43 46 45 42 41 42 42 42 43 44 45 47 47 49 51 50 52 55 56 57 56 58 58 58 59 61 63 62 59 60
44 42 47 47 44 43 42 43 43 43 45 48 49 50 51 52 51 51 55 57 56 55 54 56 56 54 57 59 59 62 61 57
45 45 48 45 44 43 43 43 42 46 48 50 52 51 53 52 52 54 56 56 53 54 55 54 52 55 55 55 56 58 58 56
47 48 49 46 46 43 43 42 45 47 50 52 53 54 54 51 53 54 54 51 52 54 52 51 53 54 53 54 54 54 52 48
49 48 51 50 42 42 42 44 47 50 53 54 55 55 53 54 53 50 49 51 53 48 49 51 51 51 53 53 53 50 45 45
50 54 51 48 43 44 45 46 50 54 57 58 55 58 55 53 47 46 48 50 45 48 49 50 50 51 51 50 49 44 43 42
Wind_Direction
281 280 275 276 278 283 276 272 274 276 281 285 287 289 291 291 290 289 292 294 296 297 298 297 296 299 296 294 290 286 288 294
278 276 273 276 283 282 277 269 268 270 275 278 280 282 284 283 278 281 286 289 293 294 296 298 300 300 298 296 293 292 291 287
274 272 275 279 282 278 274 269 264 265 269 272 275 277 277 277 277 282 286 290 293 297 299 300 300 299 297 295 292 288 285 284
270 270 275 280 282 280 276 272 265 262 264 268 269 272 274 276 278 279 283 286 290 293 297 297 297 296 294 292 291 291 290 287
269 271 275 281 281 279 278 274 268 264 263 265 266 270 271 271 271 274 284 290 293 296 298 298 296 293 291 289 288 289 289 289
270 273 276 279 280 279 276 274 270 265 263 264 266 270 270 270 273 282 288 293 295 295 293 293 293 292 291 291 290 290 289 289
269 272 274 276 277 276 274 273 270 266 264 265 268 271 273 274 280 286 290 289 290 293 294 294 294 293 292 289 286 283 284 284
269 271 274 276 275 273 272 270 267 265 265 266 267 268 271 277 282 288 291 293 294 295 296 295 293 291 290 289 289 288 287 284
269 272 273 272 271 270 270 268 267 265 266 266 267 269 273 279 283 288 290 293 296 295 295 294 294 293 290 289 290 292 292 289
269 271 270 270 270 269 268 267 265 263 263 264 266 269 274 278 284 286 290 294 295 295 295 295 296 296 298 299 298 297 296 296
267 269 269 270 270 268 266 264 263 262 263 265 267 271 275 279 284 287 292 293 294 294 295 297 299 303 307 306 303 301 297 295
267 271 270 269 269 267 265 263 262 263 264 267 270 273 277 281 285 288 290 292 294 296 299 300 302 304 308 308 303 300 298 296
267 268 269 267 265 264 264 264 264 264 266 269 271 274 278 282 286 288 290 293 296 300 301 301 302 306 307 305 300 298 298 298
267 267 269 266 264 263 264 264 264 265 267 269 271 274 280 284 288 290 292 296 298 301 301 303 305 305 305 302 301 301 302 302
262 266 268 267 264 264 262 262 264 265 268 269 273 277 281 286 289 291 294 295 299 301 302 306 306 305 304 304 302 303 302 302
257 262 266 268 267 264 263 262 264 266 268 271 275 279 284 287 290 291 294 297 300 302 306 309 307 306 308 308 310 307 302 299
254 260 264 265 263 263 263 263 265 267 271 274 277 280 284 292 291 292 295 299 301 303 307 307 306 310 310 312 310 308 308 308
255 259 260 261 260 263 263 265 267 270 273 276 277 282 288 290 291 294 298 300 302 307 306 305 310 311 312 311 310 308 309 311
257 259 256 253 254 261 262 265 269 271 272 274 278 283 291 294 292 296 298 301 306 304 305 308 311 313 313 312 309 308 309 313
256 255 263 258 247 251 258 265 268 269 272 276 281 285 291 291 292 297 301 304 303 306 308 309 312 313 312 308 307 306 308 316